#timestamp,LO_Frequency,Hit,StdDev 
1608861615.1,286047000.8,N
1608861635.9,286047001.1,N
1608861655.7,286047001.2,N
1608861675.6,286047001.1,N
1608861695.4,286046998.1,N
1608861715.2,286046998.7,N
1608861735.1,286047000.7,N
1608861736.0,286047000.7,N
1608861755.8,286046998.5,N
1608861775.7,286046998.2,N
1608861795.5,286046998.2,N
1608861815.3,286046998.1,N
1608861835.2,286046998.5,N
1608861855.0,286047000.8,N
1608861855.9,286047000.8,N
1608861875.7,286046998.1,N
1608861895.6,286046998.1,N
1608861915.4,286047000.7,N
1608861935.3,286047001.2,N
1608861955.1,286046998.2,N
1608861975.8,286046998.5,N
1608861995.7,286046998.6,N
1608862015.5,286046998.6,N
1608862035.4,286046998.1,N
1608862055.2,286046998.6,N
1608862075.0,286047000.8,N
1608862075.9,286047000.8,N
1608862095.8,286046998.3,N
1608862115.6,286046998.2,N
1608862135.5,286047001.1,N
1608862155.3,286047001.1,N
1608862175.1,286047000.8,N
1608862195.9,286047001.2,N
1608862215.7,286047001.1,N
1608862235.5,286046998.1,N
1608862255.4,286047000.6,N
1608862275.2,286047000.7,N
1608862295.1,286046998.2,N
1608862296.0,286046998.2,N
1608862315.8,286046998.2,N
1608862335.6,286047000.8,N
1608862355.5,286046998.1,N
1608862375.3,286046998.5,N
1608862395.2,286046998.7,N
1608862415.9,286046998.5,N
1608862435.7,286046998.5,N
1608862455.6,286046998.7,N
1608862475.4,286046998.7,N
1608862495.2,286046998.6,N
1608862515.1,286046999.0,N
1608862516.0,286046999.0,N
1608862535.8,286046998.8,N
1608862555.7,286046999.0,N
1608862575.5,286046996.9,N
1608862595.3,286046998.8,N
1608862615.2,286046998.7,N
1608862635.0,286046998.3,N
1608862635.9,286046998.3,N
1608862655.8,286046998.6,N
1608862675.6,286046998.1,N
1608862695.4,286046998.5,N
1608862715.3,286046998.2,N
1608862735.1,286046998.6,N
1608862755.9,286046998.1,N
1608862775.7,286046998.4,N
1608862795.5,286046998.7,N
1608862815.4,286046998.7,N
1608862835.2,286046999.3,N
1608862855.0,286046998.3,N
1608862855.9,286046998.3,N
1608862875.8,286047001.1,N
1608862895.6,286046998.1,Y
1608862915.5,286046999.7,P
1608862935.3,286047000.5,N
1608862955.1,286046999.8,N
1608862975.9,286047002.7,Y
1608862995.7,286047004.4,P
1608863015.6,286047001.5,N
1608863035.4,286047001.5,N
1608863055.2,286047001.4,N
1608863075.1,286047001.6,N
1608863076.0,286047001.6,N
1608863095.8,286047001.5,N
1608863115.7,286047001.5,N
1608863135.5,286047002.7,N
1608863155.3,286047002.6,N
1608863175.2,286047002.8,N
1608863195.0,286047000.1,N
1608863195.9,286047000.1,N
1608863215.7,286046999.8,N
1608863235.6,286047002.7,N
1608863255.4,286046999.8,N
1608863275.3,286047002.2,N
1608863295.1,286047002.4,N
1608863296.0,286047002.4,N
1608863315.8,286047002.6,N
1608863335.7,286047002.4,N
1608863355.5,286047002.0,N
1608863375.4,286047002.3,N
1608863395.2,286047002.7,N
1608863415.0,286047002.1,N
1608863415.9,286047002.1,N
1608863435.8,286047002.1,N
1608863455.6,286047002.6,N
1608863475.4,286047000.1,N
1608863495.3,286047002.4,N
1608863515.1,286047001.4,N
1608863535.9,286047001.9,N
1608863555.7,286047001.9,N
1608863575.5,286047001.5,N
1608863595.4,286047004.4,Y
1608863615.2,286047002.7,P
1608863635.1,286047000.5,N
1608863636.0,286047000.5,N
1608863655.8,286047000.0,N
1608863675.6,286047000.2,N
1608863695.5,286047001.0,N
1608863715.3,286047000.5,N
1608863735.1,286047000.7,N
1608863755.9,286046998.5,N
1608863775.7,286047001.0,N
1608863795.6,286047001.0,N
1608863815.4,286047000.9,N
1608863835.2,286047000.8,N
1608863855.1,286047000.6,N
1608863856.0,286047000.6,N
1608863875.8,286047000.2,N
1608863895.7,286046998.7,N
1608863915.5,286046999.8,N
1608863935.3,286047000.4,N
1608863955.2,286046999.9,N
1608863975.0,286047001.0,N
1608863975.9,286047001.0,N
1608863995.7,286047001.0,N
1608864015.6,286047000.9,N
1608864035.4,286046998.2,N
1608864055.3,286047000.6,N
1608864075.1,286047001.2,N
1608864095.8,286047000.9,N
1608864115.7,286046998.5,N
1608864135.5,286046998.6,N
1608864155.4,286047001.2,N
1608864175.2,286046998.2,N
1608864195.0,286046998.5,N
1608864195.9,286046998.5,N
1608864215.8,286046998.4,N
1608864235.6,286046999.3,N
1608864255.4,286047000.7,N
1608864275.3,286046998.7,N
1608864295.1,286047001.2,N
1608864315.9,286046998.7,N
1608864335.7,286046998.4,N
1608864355.5,286046998.4,N
1608864375.4,286046998.4,N
1608864395.2,286046998.6,N
1608864415.1,286046998.5,N
1608864416.0,286046998.5,N
1608864435.8,286046998.1,N
1608864455.6,286046998.7,N
1608864475.5,286047001.1,N
1608864495.3,286047001.1,N
1608864515.1,286047000.7,N
1608864535.9,286047000.6,N
1608864555.7,286047001.1,N
1608864575.6,286046998.5,N
1608864595.4,286046998.1,N
1608864615.2,286047001.0,N
1608864635.1,286047001.2,N
1608864636.0,286047001.2,N
1608864655.8,286047000.9,N
1608864675.7,286047000.7,N
1608864695.5,286047000.8,N
1608864715.3,286047000.7,N
1608864735.2,286047000.0,N
1608864755.0,286046998.2,N
1608864755.9,286046998.2,N
1608864775.8,286046998.3,N
1608864795.6,286047001.0,N
1608864815.4,286046998.2,N
1608864835.3,286047001.1,N
1608864855.1,286046998.2,N
1608864875.8,286046998.1,N
1608864895.7,286046999.0,N
1608864915.5,286046998.6,N
1608864935.4,286046998.7,N
1608864955.2,286046998.3,N
1608864975.0,286046998.5,N
1608864975.9,286046998.5,N
1608864995.8,286046998.3,N
1608865015.6,286046998.5,N
1608865035.5,286046998.6,N
1608865055.3,286046998.4,N
1608865075.1,286046998.5,N
1608865095.9,286047000.7,N
1608865115.7,286047000.0,N
1608865135.5,286047000.9,N
1608865155.4,286047000.0,N
1608865175.2,286046999.8,N
1608865195.1,286047000.1,N
1608865196.0,286047000.1,N
